Location: Trout Lake
(45.9980°N, 121.5270°W)
Time: 20:36:44
(UTC-08:00)

Cosmos 1943 - Pass Details

Date: 06 December 2023
Orbit: 831 x 851 km, 71.0° (Epoch: 22 February)

Event Time Altitude Azimuth Distance (km) Brightness Sun altitude
Rises 17:06:58 0° 334° (NNW) 3,390 6.4 -7.8°
Reaches altitude 10° 17:09:25 10° 337° (NNW) 2,455 5.6 -8.2°
Maximum altitude 17:15:03 73° 62° (ENE) 877 3.1 -9.1°
Drops below altitude 10° 17:20:40 10° 148° (SSE) 2,452 5.5 -10.0°
Sets 17:23:07 0° 150° (SSE) 3,386 6.3 -10.4°
